Location: Astronomy Club of Akron Observatory
(40.9700°N, 81.5606°W)
Time: 01:29:18
(UTC-04:00)

Cosmos 1441 Rocket - Visible Passes

Search period start: 16 April 2014 00:00
Search period end: 26 April 2014 00:00
Orbit: 512 x 558 km, 81.1° (Epoch: 15 April)

Date Brightness Start Highest point End Pass type
(mag) Time Alt. Az. Time Alt. Az. Time Alt. Az.
16 Apr 5.7 03:33:16 10° N 03:34:29 19° N 03:34:29 19° N visible
17 Apr 5.9 03:24:16 10° N 03:25:19 17° N 03:25:19 17° N visible
18 Apr 6.0 03:15:16 10° N 03:16:11 16° N 03:16:11 16° N visible
19 Apr 6.1 03:06:15 10° N 03:07:03 15° N 03:07:03 15° N visible
20 Apr 6.1 02:57:14 10° N 02:57:57 15° N 02:57:57 15° N visible
21 Apr 6.2 02:48:12 10° N 02:48:51 14° N 02:48:51 14° N visible
22 Apr 6.2 02:39:10 10° N 02:39:46 14° N 02:39:46 14° N visible
23 Apr 6.3 02:30:08 10° N 02:30:41 14° N 02:30:41 14° N visible
24 Apr 6.3 02:21:05 10° N 02:21:37 13° N 02:21:37 13° N visible
25 Apr 6.3 02:12:01 10° N 02:12:33 13° N 02:12:33 13° N visible
